LA1HSA-13 Weather Reports


time (UTC)temp
C
wind
direction
speed
KPH
gust
KPH
rain 1hr
cm
rain 24hr
cm
rain mn
cm
humidity
%
barometer
mb
20260507235003 0 0 0.0 0.0 0.00 0.00 0.00 75 1020.3
20260507234003 0 0 0.0 0.0 0.00 0.00 0.00 75 1020.0
20260507233003 1 0 0.0 0.0 0.00 0.00 0.00 74 1020.0
20260507232003 1 0 0.0 0.0 0.00 0.00 0.00 74 1020.1
20260507231003 1 0 0.0 0.0 0.00 0.00 0.00 74 1020.3
20260507230003 1 0 0.0 0.0 0.00 0.00 0.00 72 1020.0
20260507225003 2 0 0.0 0.0 0.00 0.00 0.00 71 1019.7
20260507224003 2 0 0.0 0.0 0.00 0.00 0.00 68 1019.8
20260507223003 2 0 0.0 0.0 0.00 0.00 0.00 67 1019.7
20260507222003 3 0 0.0 0.0 0.00 0.00 0.00 65 1019.7
20260507221003 3 0 0.0 0.0 0.00 0.00 0.00 64 1019.7
20260507220021 3 0 0.0 0.0 0.00 0.00 0.00 63 1019.7
20260507215003 3 0 0.0 0.0 0.00 0.00 0.00 64 1019.5
20260507214003 3 0 0.0 0.0 0.00 0.00 0.00 62 1019.3
20260507213003 4 0 0.0 0.0 0.00 0.00 0.00 58 1019.6
20260507212003 5 0 0.0 0.0 0.00 0.00 0.00 58 1019.3
20260507210003 5 0 0.0 3.2 0.00 0.00 0.00 55 1019.1
20260507205003 5 360 1.6 3.2 0.00 0.00 0.00 55 1019.0
20260507204003 6 0 0.0 0.0 0.00 0.00 0.00 51 1019.0
20260507203003 6 0 0.0 0.0 0.00 0.00 0.00 53 1018.8
20260507202003 6 0 0.0 0.0 0.00 0.00 0.00 52 1018.9
20260507201003 6 0 0.0 3.2 0.00 0.00 0.00 49 1018.7
20260507200003 7 0 0.0 3.2 0.00 0.00 0.00 46 1018.6
20260507195003 7 0 0.0 0.0 0.00 0.00 0.00 43 1018.8
20260507194003 7 0 0.0 3.2 0.00 0.00 0.00 44 1018.6
20260507193003 8 0 0.0 0.0 0.00 0.00 0.00 40 1018.5
20260507192003 9 0 0.0 0.0 0.00 0.00 0.00 37 1018.2
20260507191003 10 0 0.0 3.2 0.00 0.00 0.00 35 1018.0
20260507190004 11 247 1.6 3.2 0.00 0.00 0.00 35 1017.8
20260507185003 11 239 1.6 6.4 0.00 0.00 0.00 34 1018.0
20260507184003 12 0 0.0 3.2 0.00 0.00 0.00 32 1017.9
20260507183003 12 0 0.0 3.2 0.00 0.00 0.00 33 1017.8
20260507182003 12 246 1.6 6.4 0.00 0.00 0.00 30 1017.7
20260507181003 13 251 1.6 3.2 0.00 0.00 0.00 29 1017.4
20260507180003 13 237 1.6 6.4 0.00 0.00 0.00 29 1017.4
20260507175003 13 258 3.2 6.4 0.00 0.00 0.00 26 1017.1
20260507174003 13 276 1.6 6.4 0.00 0.00 0.00 25 1017.3
20260507173004 14 0 0.0 6.4 0.00 0.00 0.00 27 1017.3
20260507172003 13 238 3.2 6.4 0.00 0.00 0.00 27 1017.1
20260507171003 13 251 3.2 6.4 0.00 0.00 0.00 26 1017.1
20260507170004 13 0 0.0 6.4 0.00 0.00 0.00 26 1017.2
20260507165003 15 38 3.2 6.4 0.00 0.00 0.00 27 1017.1
20260507164003 15 279 1.6 9.7 0.00 0.00 0.00 25 1017.0
20260507163003 14 317 3.2 6.4 0.00 0.00 0.00 26 1017.0
20260507162003 14 11 3.2 6.4 0.00 0.00 0.00 27 1017.1
20260507161003 14 62 3.2 9.7 0.00 0.00 0.00 27 1017.2
20260507160003 15 308 3.2 6.4 0.00 0.00 0.00 27 1017.0
20260507155003 15 324 1.6 6.4 0.00 0.00 0.00 27 1016.9
20260507154003 15 307 3.2 9.7 0.00 0.00 0.00 26 1016.8
20260507153003 14 254 4.8 9.7 0.00 0.00 0.00 27 1016.9
20260507152003 14 2 3.2 9.7 0.00 0.00 0.00 27 1016.8
20260507151003 14 336 3.2 9.7 0.00 0.00 0.00 27 1016.9
20260507150003 14 17 1.6 9.7 0.00 0.00 0.00 29 1016.8
20260507145003 14 342 3.2 9.7 0.00 0.00 0.00 28 1016.9
20260507144003 14 353 3.2 12.9 0.00 0.00 0.00 29 1016.7
20260507143003 14 16 3.2 14.5 0.00 0.00 0.00 29 1016.9
20260507142003 14 346 6.4 11.3 0.00 0.00 0.00 29 1016.9
20260507141003 13 81 1.6 11.3 0.00 0.00 0.00 30 1016.7
20260507140003 14 311 3.2 6.4 0.00 0.00 0.00 30 1016.8
20260507135003 13 14 3.2 11.3 0.00 0.00 0.00 30 1016.7
20260507134003 14 340 3.2 9.7 0.00 0.00 0.00 32 1016.7
20260507133003 13 276 3.2 17.7 0.00 0.00 0.00 33 1017.0
20260507132003 13 316 6.4 17.7 0.00 0.00 0.00 30 1016.8
20260507131003 13 243 6.4 14.5 0.00 0.00 0.00 31 1016.9
20260507130004 13 101 3.2 6.4 0.00 0.00 0.00 33 1016.9
20260507125003 13 64 1.6 6.4 0.00 0.00 0.00 33 1017.0
20260507124003 12 184 3.2 6.4 0.00 0.00 0.00 33 1017.0
20260507123003 13 242 1.6 6.4 0.00 0.00 0.00 36 1016.9
20260507122004 13 0 0.0 6.4 0.00 0.00 0.00 34 1016.8
20260507121003 13 0 0.0 6.4 0.00 0.00 0.00 34 1016.9
20260507120004 13 205 3.2 11.3 0.00 0.00 0.00 34 1016.8
20260507115003 12 240 4.8 12.9 0.00 0.00 0.00 33 1017.0
20260507114003 12 239 4.8 11.3 0.00 0.00 0.00 34 1016.9
20260507113004 12 251 3.2 6.4 0.00 0.00 0.00 33 1016.7
20260507112003 12 355 3.2 6.4 0.00 0.00 0.00 34 1016.9
20260507111003 11 151 6.4 11.3 0.00 0.00 0.00 36 1017.0
20260507110004 12 0 0.0 6.4 0.00 0.00 0.00 39 1016.7
20260507105003 11 259 3.2 9.7 0.00 0.00 0.00 37 1017.0
20260507104003 11 260 4.8 11.3 0.00 0.00 0.00 36 1016.9
20260507103003 12 252 3.2 11.3 0.00 0.00 0.00 35 1016.8
20260507102003 12 261 1.6 9.7 0.00 0.00 0.00 37 1016.6
20260507101003 11 210 1.6 6.4 0.00 0.00 0.00 37 1016.6
20260507100003 11 168 3.2 6.4 0.00 0.00 0.00 37 1016.5
20260507095003 11 224 3.2 6.4 0.00 0.00 0.00 37 1016.5
20260507094003 11 171 1.6 6.4 0.00 0.00 0.00 38 1016.6
20260507093003 11 167 1.6 6.4 0.00 0.00 0.00 37 1016.9
20260507092003 10 40 1.6 6.4 0.00 0.00 0.00 39 1016.5
20260507091003 10 58 3.2 6.4 0.00 0.00 0.00 40 1016.8
20260507090004 10 61 3.2 6.4 0.00 0.00 0.00 41 1017.0
20260507085003 10 157 3.2 9.7 0.00 0.00 0.00 40 1016.8
20260507084003 10 243 3.2 9.7 0.00 0.00 0.00 44 1016.8
20260507083004 10 232 3.2 6.4 0.00 0.00 0.00 43 1016.4
20260507082003 10 293 3.2 6.4 0.00 0.00 0.00 42 1016.7
20260507081003 9 231 3.2 9.7 0.00 0.00 0.00 46 1016.6
20260507080004 8 215 3.2 9.7 0.00 0.00 0.00 46 1016.5
20260507075003 8 210 3.2 11.3 0.00 0.00 0.00 46 1016.4
20260507074003 8 207 3.2 9.7 0.00 0.00 0.00 47 1016.7
20260507073003 8 202 3.2 6.4 0.00 0.00 0.00 48 1016.5
20260507072003 8 204 3.2 6.4 0.00 0.00 0.00 48 1016.3
20260507071003 7 203 1.6 6.4 0.00 0.00 0.00 49 1016.2
20260507070005 7 184 1.6 3.2 0.00 0.00 0.00 51 1016.2
20260507065003 7 0 0.0 6.4 0.00 0.00 0.00 50 1016.2
20260507064003 7 0 0.0 3.2 0.00 0.00 0.00 50 1016.3
20260507063003 6 0 0.0 3.2 0.00 0.00 0.00 54 1016.2
20260507062003 5 145 1.6 3.2 0.00 0.00 0.00 54 1016.1
20260507061003 4 118 1.6 3.2 0.00 0.00 0.00 57 1016.0
20260507060003 3 67 1.6 3.2 0.00 0.00 0.00 61 1016.1
20260507055003 2 0 0.0 3.2 0.00 0.00 0.00 63 1016.2
20260507054003 2 0 0.0 3.2 0.00 0.00 0.00 64 1015.7
20260507053004 2 0 0.0 0.0 0.00 0.00 0.00 65 1015.7
20260507052003 1 0 0.0 0.0 0.00 0.00 0.00 65 1015.7
20260507051003 1 0 0.0 0.0 0.00 0.00 0.00 67 1015.6
20260507050003 1 0 0.0 0.0 0.00 0.00 0.00 67 1015.9
20260507045003 1 0 0.0 0.0 0.00 0.00 0.00 66 1015.4
20260507044003 1 0 0.0 0.0 0.00 0.00 0.00 66 1015.4
20260507043003 0 0 0.0 0.0 0.00 0.00 0.00 69 1015.2
20260507042003 0 0 0.0 0.0 0.00 0.00 0.00 70 1015.3
20260507041003 0 0 0.0 0.0 0.00 0.00 0.00 71 1015.2
20260507040003 -1 0 0.0 0.0 0.00 0.00 0.00 74 1015.3
20260507035003 -1 0 0.0 0.0 0.00 0.00 0.00 73 1015.0
20260507034003 -1 0 0.0 0.0 0.00 0.00 0.00 74 1014.8
20260507033003 -1 0 0.0 0.0 0.00 0.00 0.00 75 1015.1
20260507032003 -1 0 0.0 0.0 0.00 0.00 0.00 75 1015.0
20260507031003 -1 0 0.0 0.0 0.00 0.00 0.00 74 1014.8
20260507030003 -1 0 0.0 0.0 0.00 0.00 0.00 72 1014.9
20260507025003 0 0 0.0 0.0 0.00 0.00 0.00 69 1014.8
20260507024003 0 0 0.0 0.0 0.00 0.00 0.00 68 1014.5
20260507023003 0 0 0.0 0.0 0.00 0.00 0.00 69 1014.6
20260507022003 0 0 0.0 0.0 0.00 0.00 0.00 69 1014.4
20260507021003 0 0 0.0 0.0 0.00 0.00 0.00 67 1014.5
20260507020003 0 0 0.0 0.0 0.00 0.00 0.00 67 1014.6
20260507015003 0 0 0.0 0.0 0.00 0.00 0.00 67 1014.4
20260507014003 0 0 0.0 0.0 0.00 0.00 0.00 67 1014.2
20260507013003 0 0 0.0 0.0 0.00 0.00 0.00 66 1014.2
20260507012003 0 0 0.0 0.0 0.00 0.00 0.00 67 1014.4
20260507011003 0 0 0.0 0.0 0.00 0.00 0.00 65 1014.1
20260507010003 1 0 0.0 0.0 0.00 0.00 0.00 63 1013.9
20260507005003 1 0 0.0 0.0 0.00 0.00 0.00 62 1014.0
20260507004003 2 0 0.0 3.2 0.00 0.00 0.00 59 1013.6
20260507003003 2 58 1.6 6.4 0.00 0.00 0.00 56 1013.8
20260507002003 2 0 0.0 6.4 0.00 0.00 0.00 57 1013.6
20260507001003 2 60 3.2 6.4 0.00 0.00 0.00 58 1013.5
20260507000003 2 50 3.2 6.4 0.00 0.00 0.00 57 1013.6